Regional Weather Roundup
Issued by NWS Sioux Falls, SD

Home | Current Version | Previous Version | Text Only | Print | Product List | Glossary Off
Versions: 1 2 3 4 5 6 7 8 9 10 11 12 13 14 15 16 17 18 19 20 21 22 23 24 25 26 27 28 29 30 31 32 33 34 35 36 37 38 39 40 41 42 43 44 45 46 47 48 49 50
000 ASUS43 KFSD 140202 RWRFSD WEATHER ROUNDUP FOR SE SOUTH DAKOTA/SW MINNESOTA/NW IOWA NATIONAL WEATHER SERVICE SIOUX FALLS SD 900 PM CDT THU MAY 13 2021 NOTE: "FAIR" INDICATES FEW OR NO CLOUDS BELOW 12,000 FEET WITH NO SIGNIFICANT WEATHER AND OR OBSTRUCTIONS TO VISIBILITY. SDZ038>040-050-052>070-140300- SOUTHEAST SOUTH DAKOTA CITY SKY/WX TMP DP RH WIND PRES REMARKS BROOKINGS MOCLDY 61 36 39 SE12 30.12R CHAMBERLAIN NOT AVBL HURON PTCLDY 62 46 55 SE9 30.04R MITCHELL PTCLDY 67 42 40 S14G28 30.06R SIOUX FALLS MOCLDY 64 34 32 S12 30.11S WINNER LGT RAIN 63 44 50 SW9 30.06R YANKTON MOCLDY 64 39 39 SE13 30.10S $$ MNZ071-072-080-081-089-090-097-098-140300- SOUTHWEST MINNESOTA CITY SKY/WX TMP DP RH WIND PRES REMARKS FAIRMONT CLOUDY 60 26 27 S8 30.20S JACKSON PTCLDY 57 27 30 S6 30.19S LUVERNE MOCLDY 59 32 36 S9 30.15R MARSHALL PTCLDY 57 34 41 SE10 30.15S MONTEVIDEO CLOUDY 63 27 25 S6 30.15S PIPESTONE MOCLDY 59 36 41 S8 30.13F REDWOOD FALLS CLOUDY 63 30 28 S8 30.16S TRACY PTCLDY 57 27 31 SE6 30.15F WINDOM PTCLDY 57 28 33 SE9 30.17S WORTHINGTON PTCLDY 60 28 29 S12 30.17S $$ IAZ001>003-012>014-020>022-031-032-NEZ013-014-SDZ071-140300- NORTHWEST IOWA CITY SKY/WX TMP DP RH WIND PRES REMARKS CHEROKEE MOCLDY 58 30 34 S7 30.19R DENISON PTCLDY 59 27 29 S10 30.22R ESTHERVILLE PTCLDY 57 24 28 S12 30.19S LE MARS PTCLDY 61 32 33 SE12 30.15R MAURICE FAIR 59 32 36 S15 30.15R SHELDON MOCLDY 59 30 33 S12 30.15R SIOUX CITY PTCLDY 61 32 33 S10 30.15S SPENCER PTCLDY 55 30 38 S10 30.19R STORM LAKE MOCLDY 57 27 30 S12 30.20S $$ ABBREVIATIONS USED IN REMARKS TC - TEMPERATURE IN CELSIUS WCI - WIND CHILL INDEX HX - HEAT INDEX VSB - VISIBILITY

USA.gov is the U.S. government's official web portal to all federal, state and local government web resources and services.